Home > Weather > Fresno > Past weeks

Flag for USA Past Weather in Fresno, California, USA — Yesterday and Last 2 Weeks

Now
104 °F

Passing clouds.


Feels Like: 98 °F
Forecast: 77 / 111 °F
Wind: 10 mph from Northwest

Location: Fresno Air Terminal

Current Time: Jul 28, 2016 at 7:24:37 PM

Latest Report: Jul 28, 2016 at 6:53 PM


Visibility: 10 mi

Pressure: 29.75 "Hg

Humidity: 7%

Dew Point: 27 °F

Location of FresnoLocation

Past Weather in Fresno — Graph

°F

Fresno Temperature Yesterday

Maximum temperature yesterday: 108 °F (at 3:53 PM)
Minimum temperature yesterday: 76 °F (at 5:53 AM)
Average temperature yesterday: 92 °F

High & Low Weather Summary for the Past Weeks

 TemperatureHumidityPressure
High108 °F (Jul 27, 3:53 PM)68% (Jul 19, 4:53 AM)30.07 "Hg (Jul 19, 4:53 AM)
Low64 °F (Jul 18, 5:53 AM)6% (Jul 24, 6:53 PM)29.74 "Hg (Jul 16, 4:53 PM)
Average85 °F31%29.88 "Hg
* Reported Jul 13 5:53 PM — Jul 28 5:53 PM, Fresno, Weather by CustomWeather, © 2016

Note: Actual official high and low records may vary slightly from our data, if they occured in-between our weather recording intervals... More about our weather records

Advertising

Fresno Weather History for the Previous 24 Hours

Scroll right to see more
 ConditionsComfort  
Time TempWeatherWind HumidityBarometerVisibility
5:53 PM
Thu, Jul 28
106 °FPassing clouds.10 mph8%29.75 "Hg10 mi
4:53 PM106 °FPassing clouds.7 mph9%29.75 "Hg10 mi
3:53 PM108 °FPassing clouds.5 mph10%29.76 "Hg10 mi
2:53 PM106 °FPassing clouds.6 mph10%29.78 "Hg10 mi
1:53 PM103 °FSunny.9 mph16%29.80 "Hg10 mi
12:53 PM102 °FSunny.5 mph14%29.82 "Hg10 mi
11:53 AM96 °FSunny.3 mph23%29.84 "Hg8 mi
10:53 AM92 °FSunny.6 mph30%29.85 "Hg8 mi
9:53 AM89 °FSunny.8 mph31%29.85 "Hg7 mi
8:53 AM85 °FSunny.7 mph37%29.86 "Hg6 mi
7:53 AM81 °FSunny.3 mph38%29.85 "Hg9 mi
6:53 AM77 °FPassing clouds.6 mph44%29.84 "Hg10 mi
5:53 AM77 °FPassing clouds.No wind42%29.82 "Hg10 mi
4:53 AM78 °FClear.5 mph40%29.81 "Hg10 mi
3:53 AM80 °FClear.6 mph36%29.81 "Hg10 mi
2:53 AM80 °FClear.7 mph36%29.80 "Hg10 mi
1:53 AM82 °FClear.12 mph35%29.80 "Hg10 mi
12:53 AM86 °FClear.8 mph31%29.81 "Hg10 mi
11:53 PM
Wed, Jul 27
86 °FClear.9 mph36%29.81 "Hg10 mi
10:53 PM90 °FPassing clouds.8 mph31%29.81 "Hg10 mi
9:53 PM93 °FClear.12 mph24%29.81 "Hg10 mi
8:53 PM95 °FPassing clouds.14 mph23%29.79 "Hg10 mi
7:53 PM98 °FScattered clouds.15 mph22%29.78 "Hg7 mi
Weather by CustomWeather, © 2016

See weather overviewHow to use our weather pages